Regional Weather Roundup
Issued by NWS

Home | Current Version | Previous Version | Graphics & Text | Print | Product List | Glossary On
Versions: 1 2 3 4 5 6 7 8 9 10 11 12 13 14 15 16 17 18 19 20 21 22 23 24 25 26 27
000
ASUS43 KDMX 180707
RWRIA

WEATHER ROUNDUP FOR IOWA
NATIONAL WEATHER SERVICE DES MOINES IA
200 AM CDT FRI APR 18 2014

NOTE: "FAIR" INDICATES FEW OR NO CLOUDS BELOW 12,000 FEET WITH NO
SIGNIFICANT WEATHER AND/OR OBSTRUCTIONS TO VISIBILITY.

* - THESE STATIONS ARE NOT NWS STATIONS...THUS NOT UNDER NWS
QUALITY CONTROL.  THEY ALSO DO NOT REPORT WEATHER SUCH
AS PRECIPITATION OR FOG.

IAZ001>003-012>014-020>022-031>034-043>046-180800-
   NORTHWEST IOWA

CITY           SKY/WX    TMP DP  RH WIND       PRES   REMARKS
CARROLL *      PTCLDY    32  27  80 CALM      30.29S
CHEROKEE *     PTCLDY    34  28  80 CALM      30.28S
DENISON *      MOCLDY    34  28  80 E7        30.26F WCI  28
LE MARS *      PTCLDY    37  30  75 E9G16     30.26F WCI  31
ORANGE CITY *  CLOUDY    36  30  80 E7        30.26F WCI  30
SHELDON *      CLOUDY    32  28  86 E8        30.26F WCI  25
SIOUX CITY     PTCLDY    32  25  75 E7        30.26S WCI  26
SPENCER        CLOUDY    30  26  85 E6        30.28F WCI  24
STORM LAKE *   MOCLDY    34  30  86 SE8       30.29R WCI  27
$$

IAZ055>058-069>071-079>083-090>094-180800-
   SOUTHWEST IOWA

CITY           SKY/WX    TMP DP  RH WIND       PRES   REMARKS
ATLANTIC *     CLOUDY    30  27  86 NE3       30.27S
AUDUBON *      CLEAR     32  25  74 CALM      30.28F
CLARINDA *     CLEAR     30  28  93 CALM      30.29F
COUNCIL BLFS * CLEAR     37  25  60 SE6       30.25F WCI  33
CRESTON *      CLEAR     37  30  75 CALM      30.28S
HARLAN  *      CLEAR     36  27  69 CALM      30.30F
LAMONI         CLEAR     40  32  73 SW6       30.27S
RED OAK *      CLEAR     32  27  80 CALM      30.27F
SHENANDOAH *   CLEAR     34  30  86 CALM      30.28F
$$

IAZ047>049-059>061-072>074-084-180800-
   CENTRAL IOWA

CITY           SKY/WX    TMP DP  RH WIND       PRES   REMARKS
AMES           CLEAR     33  28  81 NE3       30.30F
ANKENY *       CLEAR     34  30  86 N5        30.30S WCI  30
CHARITON *     PTCLDY    37  30  75 E3        30.29S
DES MOINES     CLEAR     39  30  70 E7        30.30S WCI  34
GRINNELL*      CLEAR     32  30  93 NE5       30.30S WCI  27
KNOXVILLE *    CLEAR     36  30  80 E5        30.29S WCI  32
MARSHALLTOWN   CLEAR     30  28  92 E6        30.30F WCI  24
NEWTON *       CLEAR     34  30  86 NE9       30.30F WCI  26
PELLA *        CLEAR     34  30  86 CALM      30.31S
PERRY *          N/A     36  30  80 E6        30.30S WCI  31
$$

IAZ004>006-015-016-023>025-035-036-180800-
   NORTH CENTRAL IOWA

CITY           SKY/WX    TMP DP  RH WIND       PRES   REMARKS
ALGONA *       PTCLDY    32  28  86 SE3       30.31S
CLARION *      CLEAR     28  28 100 E8        30.30F WCI  20
ESTHERVILLE    PTCLDY    27  27 100 SE5       30.29S WCI  22
FORT DODGE *   CLEAR     30  27  86 E6        30.30F WCI  24
MASON CITY     FOG       25  24  96 CALM      30.32F VSB 1/4
FOREST CITY *  CLEAR     27  27 100 E3        30.30F FOG
IOWA FALLS *     N/A     30  28  93 CALM      30.32S
$$

IAZ007>011-017>019-026>030-037>042-050>054-066-180800-
   NORTHEAST IOWA

CITY           SKY/WX    TMP DP  RH WIND       PRES   REMARKS
CEDAR RAPIDS   CLEAR     31  27  85 N9        30.29F WCI  23
CHARLES CITY * CLEAR     30  28  93 N5        30.32F WCI  25
CLINTON *      CLEAR     34  30  86 N10       30.31S WCI  26
DECORAH *      CLEAR     30  28  93 CALM      30.30F
DUBUQUE        CLEAR     33  29  85 N7        30.29F WCI  27
MONTICELLO *   CLEAR     32  30  93 N6        30.31S WCI  26
OELWEIN *      CLEAR    N/A N/A N/A N6        30.32S
WATERLOO       CLEAR     28  26  92 CALM      30.32S
$$

IAZ064-065-067-068-078-180800-
   EAST CENTRAL IOWA

CITY           SKY/WX    TMP DP  RH WIND       PRES   REMARKS
DAVENPORT      CLEAR     34  31  88 N9        30.31S WCI  27
IOWA CITY      CLEAR     36  31  82 N8        30.31F WCI  30
MT. PLEASANT * CLEAR     37  32  81 N8        30.29R WCI  31
MUSCATINE *    PTCLDY    36  32  87 CALM      30.30F
QUAD CITIES    CLEAR     39  32  76 CALM      30.29S
$$

IAZ062-063-075>077-085>089-095>099-180800-
   SOUTHEAST IOWA

CITY           SKY/WX    TMP DP  RH WIND       PRES   REMARKS
BURLINGTON     CLEAR     42  33  70 N6        30.28S
FAIRFIELD *    CLEAR     32  28  86 NE8       30.29S WCI  25
FORT MADISON * CLEAR     39  36  87 N5        30.29S
KEOKUK *       CLEAR     43  36  75 CALM      30.27F
OSKALOOSA *      N/A     34  30  86 NE6       30.30S WCI  29
CENTERVILLE *  CLEAR     37  32  81 CALM      30.30R
OTTUMWA        CLEAR     36  30  79 NE9       30.29R WCI  29
WASHINGTON *   PTCLDY    34  32  93 N8        30.29F WCI  27
$$

ABBREVIATIONS USED IN REMARKS
   TC - TEMPERATURES IN CELSIUS
  WCI - WIND CHILL INDEX
   HX - HEAT INDEX
  VSB - VISIBILITY
$$




USA.gov is the U.S. government's official web portal to all federal, state and local government web resources and services.